GW5437 Weather Reports


time (UTC)temp
F
wind
direction
speed
knots
gust
knots
rain 1hr
in
rain 24hr
in
rain mn
in
humidity
%
barometer
mb
20260510194033 89 219 7.0 11.3 0.00 0.03 0.03 66 1016.4
20260510193532 89 238 4.3 11.3 0.00 0.03 0.03 67 1016.5
20260510193053 90 238 5.2 11.3 0.00 0.03 0.03 67 1016.4
20260510192534 90 255 4.3 10.4 0.00 0.03 0.03 66 1016.3
20260510192033 90 294 4.3 10.4 0.00 0.03 0.03 66 1016.4
20260510191545 89 212 4.3 10.4 0.00 0.03 0.03 66 1016.3
20260510191033 89 300 4.3 13.0 0.00 0.03 0.03 68 1016.4
20260510190532 89 221 4.3 13.0 0.01 0.03 0.03 69 1016.3
20260510190046 89 264 2.6 10.4 0.01 0.03 0.03 70 1016.3
20260510185536 88 227 2.6 10.4 0.03 0.03 0.03 73 1016.3
20260510185033 85 258 1.7 8.7 0.03 0.03 0.03 76 1016.6
20260510184553 83 219 0.9 9.6 0.03 0.03 0.03 81 1016.4
20260510184035 82 0 0.9 9.6 0.03 0.03 0.03 83 1016.3
20260510183532 81 46 4.3 9.6 0.03 0.03 0.03 83 1016.4
20260510183044 81 0 0.9 1.7 0.03 0.03 0.03 88 1016.4
20260510182534 81 0 0.0 0.9 0.03 0.03 0.03 84 1016.5
20260510182035 82 0 0.0 3.5 0.03 0.03 0.03 83 1016.5
20260510181538 82 0 0.9 3.5 0.03 0.03 0.03 80 1016.6
20260510181033 83 143 0.9 3.5 0.03 0.03 0.03 82 1016.7
20260510180533 83 0 0.0 7.8 0.02 0.02 0.02 80 1016.7
20260510180047 85 263 0.0 7.8 0.02 0.02 0.02 77 1016.6
20260510175532 88 259 3.5 10.4 0.00 0.00 0.00 69 1016.8
20260510175033 89 216 3.5 15.6 0.00 0.00 0.00 67 1016.6
20260510174544 91 286 6.1 15.6 0.00 0.00 0.00 64 1016.5
20260510174036 94 245 7.0 13.0 0.00 0.00 0.00 57 1016.6
20260510173533 94 243 7.0 13.0 0.00 0.00 0.00 59 1016.3
20260510173045 93 242 9.6 13.0 0.00 0.00 0.00 60 1016.5
20260510172533 93 207 5.2 12.2 0.00 0.00 0.00 59 1016.6
20260510172032 94 160 7.8 12.2 0.00 0.00 0.00 58 1016.8
20260510171548 94 198 8.7 12.2 0.00 0.00 0.00 58 1016.7
20260510171033 93 227 4.3 10.4 0.00 0.00 0.00 61 1016.8
20260510170535 93 207 4.3 11.3 0.00 0.00 0.00 61 1016.8
20260510170109 93 232 6.1 11.3 0.00 0.00 0.00 60 1016.8
20260510165533 92 240 7.0 11.3 0.00 0.00 0.00 62 1017.0
20260510165035 92 200 6.1 10.4 0.00 0.00 0.00 63 1017.1
20260510164559 92 169 4.3 10.4 0.00 0.00 0.00 63 1017.2
20260510164033 91 227 2.6 8.7 0.00 0.00 0.00 66 1017.3
20260510163534 91 233 4.3 8.7 0.00 0.00 0.00 65 1017.2
20260510163045 92 252 4.3 8.7 0.00 0.00 0.00 62 1017.3
20260510162533 94 220 3.5 8.7 0.00 0.00 0.00 63 1017.4
20260510162032 92 213 4.3 8.7 0.00 0.00 0.00 64 1017.4
20260510161544 93 134 3.5 7.8 0.00 0.00 0.00 63 1017.6
20260510161036 93 250 1.7 5.2 0.00 0.00 0.00 64 1017.6
20260510160535 91 181 1.7 10.4 0.00 0.00 0.00 67 1017.7
20260510160047 90 252 5.2 10.4 0.00 0.00 0.00 66 1017.7
20260510155533 90 227 6.1 10.4 0.00 0.00 0.00 67 1017.8
20260510155033 90 222 5.2 8.7 0.00 0.00 0.00 68 1017.7
20260510154545 90 222 2.6 8.7 0.00 0.00 0.00 68 1017.6
20260510154031 89 212 1.7 10.4 0.00 0.00 0.00 69 1017.5
20260510153532 90 221 4.3 10.4 0.00 0.00 0.00 69 1017.6
20260510153052 89 210 5.2 10.4 0.00 0.00 0.00 68 1017.7
20260510152533 90 245 2.6 9.6 0.00 0.00 0.00 68 1017.6
20260510152033 90 191 4.3 10.4 0.00 0.00 0.00 68 1017.6
20260510151552 90 217 4.3 10.4 0.00 0.00 0.00 69 1017.5
20260510151036 90 237 3.5 8.7 0.00 0.00 0.00 69 1017.6
20260510150536 90 211 2.6 7.0 0.00 0.00 0.00 70 1017.5
20260510150048 89 120 1.7 3.5 0.00 0.00 0.00 71 1017.5
20260510145535 88 203 0.9 10.4 0.00 0.00 0.00 73 1017.6
20260510145035 87 134 3.5 10.4 0.00 0.00 0.00 74 1017.8
20260510144548 86 0 1.7 6.1 0.00 0.00 0.00 74 1017.8
20260510144033 86 200 1.7 6.1 0.00 0.00 0.00 76 1017.9
20260510143534 85 210 0.9 6.1 0.00 0.00 0.00 76 1017.8
20260510143043 85 212 0.9 8.7 0.00 0.00 0.00 75 1017.8
20260510142535 86 214 4.3 8.7 0.00 0.00 0.00 74 1017.7
20260510142037 87 226 1.7 7.8 0.00 0.00 0.00 75 1017.7
20260510141547 87 235 1.7 8.7 0.00 0.00 0.00 73 1017.6
20260510141036 87 210 1.7 8.7 0.00 0.00 0.00 75 1017.6
20260510140535 86 157 3.5 8.7 0.00 0.00 0.00 76 1017.5
20260510140042 86 241 0.9 3.5 0.00 0.00 0.00 76 1017.5
20260510135538 86 115 1.7 3.5 0.00 0.00 0.00 77 1017.4
20260510135038 85 149 0.9 4.3 0.00 0.00 0.00 78 1017.5
20260510134544 84 239 1.7 4.3 0.00 0.00 0.00 79 1017.5
20260510134039 84 167 2.6 6.1 0.00 0.00 0.00 79 1017.6
20260510133535 83 141 1.7 6.1 0.00 0.00 0.00 80 1017.4
20260510133044 83 0 1.7 5.2 0.00 0.00 0.00 81 1017.5
20260510132536 82 148 0.9 2.6 0.00 0.00 0.00 82 1017.3
20260510132037 81 0 0.9 2.6 0.00 0.00 0.00 83 1017.4
20260510131545 80 155 0.9 2.6 0.00 0.00 0.00 85 1017.3
20260510131033 80 0 0.0 5.2 0.00 0.00 0.00 85 1017.4
20260510130533 80 150 0.9 5.2 0.00 0.00 0.00 85 1017.4
20260510130048 80 214 0.9 5.2 0.00 0.00 0.00 85 1017.4
20260510125538 80 136 0.9 3.5 0.00 0.00 0.00 85 1017.3
20260510125033 80 158 0.0 3.5 0.00 0.00 0.00 87 1017.3
20260510124552 80 141 0.9 3.5 0.00 0.00 0.00 87 1017.2
20260510124040 79 0 0.0 2.6 0.00 0.00 0.00 88 1017.2
20260510123533 79 156 0.9 2.6 0.00 0.00 0.00 89 1017.1
20260510123046 78 146 0.9 2.6 0.00 0.00 0.00 90 1017.2
20260510122536 77 150 0.0 1.7 0.00 0.00 0.00 91 1017.2
20260510122035 77 0 0.0 1.7 0.00 0.00 0.00 92 1017.1
20260510121546 76 0 0.0 1.7 0.00 0.00 0.00 93 1016.9
20260510121035 76 0 0.0 0.9 0.00 0.00 0.00 94 1016.8
20260510120535 75 153 0.0 1.7 0.00 0.00 0.00 95 1016.8
20260510120043 75 0 0.0 1.7 0.00 0.00 0.00 96 1016.8
20260510115533 75 0 0.0 1.7 0.00 0.00 0.00 96 1016.6
20260510115033 74 0 0.0 1.7 0.00 0.00 0.00 98 1016.6
20260510114550 74 146 0.0 1.7 0.00 0.00 0.00 98 1016.6
20260510114036 73 0 0.0 1.7 0.00 0.00 0.00 99 1016.5
20260510113537 73 0 0.0 0.9 0.00 0.00 0.00 99 1016.5
20260510113042 72 0 0.0 0.9 0.00 0.00 0.00 100 1016.5
20260510112537 72 0 0.0 0.0 0.00 0.00 0.00 100 1016.3
20260510112033 71 0 0.0 0.0 0.00 0.00 0.00 100 1016.2
20260510111545 71 0 0.0 0.0 0.00 0.00 0.00 100 1016.0
20260510111033 71 0 0.0 0.0 0.00 0.00 0.00 100 1016.0
20260510110533 71 0 0.0 0.0 0.00 0.00 0.00 100 1015.9
20260510110046 71 0 0.0 0.0 0.00 0.00 0.00 100 1015.9
20260510105533 71 0 0.0 0.0 0.00 0.00 0.00 100 1015.7
20260510105033 71 0 0.0 0.0 0.00 0.00 0.00 100 1015.7
20260510104553 70 0 0.0 0.0 0.00 0.00 0.00 100 1015.8
20260510104035 70 0 0.0 0.0 0.00 0.00 0.00 99 1015.8
20260510103535 70 0 0.0 0.0 0.00 0.00 0.00 99 1015.7
20260510103044 70 0 0.0 0.0 0.00 0.00 0.00 99 1015.6
20260510102536 71 0 0.0 0.0 0.00 0.00 0.00 99 1015.6
20260510102036 71 0 0.0 0.0 0.00 0.00 0.00 99 1015.4
20260510101544 71 0 0.0 0.0 0.00 0.00 0.00 99 1015.3
20260510101036 71 0 0.0 0.0 0.00 0.00 0.00 99 1015.2
20260510100535 71 0 0.0 0.0 0.00 0.00 0.00 99 1015.1
20260510100046 70 0 0.0 0.0 0.00 0.00 0.00 98 1015.1
20260510095533 71 0 0.0 0.0 0.00 0.00 0.00 98 1015.2
20260510095034 71 0 0.0 0.0 0.00 0.00 0.00 98 1014.9
20260510094545 71 0 0.0 0.0 0.00 0.00 0.00 98 1014.9
20260510094033 71 0 0.0 0.0 0.00 0.00 0.00 98 1014.8
20260510093535 72 0 0.0 0.0 0.00 0.00 0.00 98 1014.6
20260510093049 72 0 0.0 0.0 0.00 0.00 0.00 98 1014.6
20260510092533 72 0 0.0 0.0 0.00 0.00 0.00 98 1014.7
20260510092033 72 0 0.0 0.0 0.00 0.00 0.00 98 1014.5
20260510091550 72 0 0.0 0.0 0.00 0.00 0.00 98 1014.5
20260510091032 72 0 0.0 0.0 0.00 0.00 0.00 97 1014.5
20260510090539 72 0 0.0 0.0 0.00 0.00 0.00 97 1014.4
20260510090112 72 0 0.0 0.0 0.00 0.00 0.00 97 1014.5
20260510085535 72 0 0.0 0.0 0.00 0.00 0.00 97 1014.3
20260510085037 72 0 0.0 0.0 0.00 0.00 0.00 97 1014.2
20260510084542 72 0 0.0 0.0 0.00 0.00 0.00 97 1014.1
20260510084036 72 0 0.0 0.0 0.00 0.00 0.00 97 1014.3
20260510083535 72 0 0.0 0.0 0.00 0.00 0.00 97 1014.3
20260510083058 72 0 0.0 0.0 0.00 0.00 0.00 97 1014.3
20260510082536 72 0 0.0 0.0 0.00 0.00 0.00 97 1014.3
20260510082033 72 0 0.0 0.0 0.00 0.00 0.00 97 1014.1
20260510081544 73 0 0.0 0.0 0.00 0.00 0.00 97 1014.2
20260510081033 73 0 0.0 0.0 0.00 0.00 0.00 97 1014.2
20260510080532 73 0 0.0 0.0 0.00 0.00 0.00 97 1014.2
20260510080045 72 0 0.0 0.0 0.00 0.00 0.00 97 1014.3
20260510075532 72 0 0.0 0.0 0.00 0.00 0.00 97 1014.3
20260510075032 72 0 0.0 0.0 0.00 0.00 0.00 97 1014.3
20260510074544 72 0 0.0 0.0 0.00 0.00 0.00 97 1014.3
20260510074034 72 0 0.0 0.0 0.00 0.00 0.00 97 1014.4
20260510073535 72 0 0.0 0.0 0.00 0.00 0.00 97 1014.5
20260510073044 72 0 0.0 0.0 0.00 0.00 0.00 97 1014.6
20260510072535 72 0 0.0 0.0 0.00 0.00 0.00 97 1014.6
20260510072033 72 0 0.0 0.0 0.00 0.00 0.00 96 1014.5
20260510071543 73 0 0.0 0.9 0.00 0.00 0.00 96 1014.6
20260510071033 73 0 0.0 0.9 0.00 0.00 0.00 96 1014.6
20260510070533 73 0 0.0 0.0 0.00 0.00 0.00 96 1014.6
20260510070040 73 0 0.0 0.0 0.00 0.00 0.00 96 1014.7
20260510065535 73 0 0.0 0.0 0.00 0.00 0.00 96 1014.7
20260510065033 73 0 0.0 0.0 0.00 0.00 0.00 96 1014.8
20260510064545 73 0 0.0 0.0 0.00 0.00 0.00 95 1014.8
20260510064034 73 0 0.0 0.0 0.00 0.00 0.00 95 1014.9
20260510063534 74 0 0.0 0.0 0.00 0.00 0.00 95 1015.0
20260510063044 74 0 0.0 0.9 0.00 0.00 0.00 95 1015.2
20260510062535 74 0 0.0 0.9 0.00 0.00 0.00 95 1015.2
20260510062032 74 0 0.0 0.9 0.00 0.00 0.00 95 1015.2
20260510061546 74 0 0.0 0.9 0.00 0.00 0.00 95 1015.2
20260510061036 74 123 0.0 0.9 0.00 0.00 0.00 95 1015.4
20260510060534 74 0 0.0 0.9 0.00 0.00 0.00 94 1015.3
20260510060044 74 0 0.0 0.9 0.00 0.00 0.00 94 1015.4
20260510055536 74 0 0.0 0.9 0.00 0.00 0.00 94 1015.6
20260510055035 75 0 0.0 1.7 0.00 0.00 0.00 94 1015.8
20260510054541 75 0 0.0 1.7 0.00 0.00 0.00 95 1015.9
20260510054033 75 73 0.0 1.7 0.00 0.00 0.00 95 1015.9
20260510053609 74 0 0.9 1.7 0.00 0.00 0.00 95 1015.8
20260510053049 74 0 0.0 0.9 0.00 0.00 0.00 96 1016.0
20260510052537 74 0 0.0 0.9 0.00 0.00 0.00 96 1016.1
20260510052033 74 0 0.0 0.9 0.00 0.00 0.00 97 1016.0
20260510051550 74 0 0.0 0.0 0.00 0.00 0.00 97 1015.9
20260510051035 74 0 0.0 0.0 0.00 0.00 0.00 97 1016.1
20260510050532 74 0 0.0 0.0 0.00 0.00 0.00 97 1015.9
20260510050045 74 0 0.0 0.0 0.00 0.00 0.00 97 1015.9
20260510045537 75 0 0.0 0.0 0.00 0.00 0.00 98 1016.1
20260510045036 74 0 0.0 0.0 0.00 0.00 0.00 97 1016.3
20260510044544 74 0 0.0 0.0 0.00 0.00 0.00 97 1016.2
20260510044034 74 0 0.0 0.0 0.00 0.00 0.00 97 1016.3
20260510043532 74 0 0.0 0.0 0.00 0.00 0.00 98 1016.2
20260510043043 74 0 0.0 0.0 0.00 0.00 0.00 98 1016.2
20260510042533 74 0 0.0 0.0 0.00 0.00 0.00 97 1016.3
20260510042036 74 0 0.0 0.0 0.00 0.00 0.00 97 1016.3
20260510041553 74 0 0.0 0.0 0.00 0.00 0.00 97 1016.3
20260510041033 74 0 0.0 0.0 0.00 0.00 0.00 97 1016.2
20260510040539 74 0 0.0 0.0 0.00 0.00 0.00 97 1016.2
20260510040050 74 0 0.0 0.0 0.00 0.00 0.00 97 1016.2
20260510035533 74 0 0.0 0.0 0.00 0.00 0.00 96 1016.1
20260510035034 74 0 0.0 0.0 0.00 0.00 0.00 96 1016.2
20260510034549 74 0 0.0 0.0 0.00 0.00 0.00 96 1016.0
20260510034034 74 0 0.0 0.0 0.00 0.00 0.00 96 1016.1
20260510033532 75 0 0.0 0.9 0.00 0.00 0.00 96 1016.0
20260510033051 75 0 0.0 0.9 0.00 0.00 0.00 96 1016.0
20260510032533 75 224 0.0 0.0 0.00 0.00 0.00 95 1015.9
20260510032032 75 0 0.0 0.0 0.00 0.00 0.00 95 1015.9
20260510031544 75 0 0.0 0.0 0.00 0.00 0.00 94 1015.8
20260510031033 75 0 0.0 0.0 0.00 0.00 0.00 94 1015.8
20260510030532 75 0 0.0 0.0 0.00 0.00 0.00 94 1015.7
20260510030042 75 0 0.0 0.0 0.00 0.00 0.00 94 1015.9
20260510025534 76 0 0.0 0.0 0.00 0.00 0.00 93 1015.9
20260510025036 76 0 0.0 0.0 0.00 0.00 0.00 92 1015.9
20260510024552 76 0 0.0 0.0 0.00 0.00 0.00 91 1016.0
20260510024033 76 0 0.0 0.0 0.00 0.00 0.00 91 1016.0
20260510023535 76 0 0.0 0.9 0.00 0.00 0.00 90 1016.0
20260510023046 76 0 0.0 0.9 0.00 0.00 0.00 90 1016.0
20260510022537 76 0 0.0 0.0 0.00 0.00 0.00 90 1015.9
20260510022033 76 0 0.0 0.0 0.00 0.00 0.00 90 1015.8
20260510021546 76 0 0.0 0.0 0.00 0.00 0.00 90 1016.0
20260510021032 76 0 0.0 0.0 0.00 0.00 0.00 89 1015.9
20260510020533 76 0 0.0 0.0 0.00 0.00 0.00 89 1015.9
20260510020044 76 0 0.0 0.0 0.00 0.00 0.00 89 1015.7
20260510015533 76 0 0.0 0.0 0.00 0.00 0.00 88 1015.4
20260510015032 76 0 0.0 0.0 0.00 0.00 0.00 88 1015.5
20260510014545 77 0 0.0 0.0 0.00 0.00 0.00 88 1015.3
20260510014034 77 0 0.0 0.0 0.00 0.00 0.00 87 1015.2
20260510013533 77 0 0.0 0.9 0.00 0.00 0.00 87 1015.2
20260510013042 77 0 0.0 0.9 0.00 0.00 0.00 87 1015.1
20260510012533 77 0 0.0 0.0 0.00 0.00 0.00 86 1015.1
20260510012035 78 0 0.0 0.0 0.00 0.00 0.00 86 1015.0
20260510011540 78 0 0.0 0.0 0.00 0.00 0.00 85 1015.0
20260510011032 78 0 0.0 0.0 0.00 0.00 0.00 84 1015.0
20260510010534 78 0 0.0 0.0 0.00 0.00 0.00 84 1014.9
20260510010045 79 224 0.0 0.9 0.00 0.00 0.00 84 1014.8
20260510005533 79 0 0.0 0.9 0.00 0.00 0.00 83 1014.7
20260510005033 79 219 0.0 0.9 0.00 0.00 0.00 83 1014.7
20260510004547 79 228 0.0 1.7 0.00 0.00 0.00 83 1014.6
20260510004032 80 0 0.0 1.7 0.00 0.00 0.00 82 1014.5
20260510003533 80 246 0.0 1.7 0.00 0.00 0.00 82 1014.5
20260510003057 80 259 0.9 1.7 0.00 0.00 0.00 82 1014.3
20260510002535 80 220 0.9 3.5 0.00 0.00 0.00 81 1014.3
20260510002035 80 248 0.9 3.5 0.00 0.00 0.00 81 1014.3
20260510001542 80 231 0.0 3.5 0.00 0.00 0.00 80 1014.2
20260510001036 81 0 0.9 5.2 0.00 0.00 0.00 78 1014.3
20260510000535 81 249 1.7 5.2 0.00 0.00 0.00 78 1014.3
20260510000041 81 268 1.7 6.1 0.00 0.00 0.00 76 1014.2
20260509235535 81 245 3.5 11.3 0.00 0.00 0.00 75 1014.1
20260509235033 82 278 1.7 11.3 0.00 0.00 0.00 73 1014.1
20260509234543 82 196 1.7 11.3 0.00 0.00 0.00 72 1014.0
20260509234033 83 254 1.7 6.1 0.00 0.00 0.00 70 1013.9
20260509233533 83 248 1.7 8.7 0.00 0.00 0.00 67 1013.8
20260509233047 84 221 3.5 8.7 0.00 0.00 0.00 65 1013.8
20260509232535 84 246 2.6 8.7 0.00 0.00 0.00 63 1013.6
20260509232033 84 250 2.6 7.8 0.00 0.00 0.00 62 1013.7
20260509231545 85 231 2.6 7.8 0.00 0.00 0.00 60 1013.6
20260509231032 85 250 4.3 7.8 0.00 0.00 0.00 59 1013.6
20260509230532 85 242 3.5 11.3 0.00 0.00 0.00 57 1013.5
20260509230050 86 195 5.2 11.3 0.00 0.00 0.00 56 1013.7
20260509225535 86 279 4.3 10.4 0.00 0.00 0.00 55 1013.5
20260509225032 86 264 5.2 10.4 0.00 0.00 0.00 54 1013.3
20260509224556 87 242 4.3 9.6 0.00 0.00 0.00 55 1013.4
20260509224037 87 265 6.1 9.6 0.00 0.00 0.00 57 1013.3
20260509223535 87 233 4.3 11.3 0.00 0.00 0.00 56 1013.2
20260509223048 88 244 5.2 11.3 0.00 0.00 0.00 56 1013.2
20260509222536 88 278 6.1 11.3 0.00 0.00 0.00 56 1013.0
20260509222036 88 245 6.1 11.3 0.00 0.00 0.00 56 1012.9
20260509221548 89 220 5.2 9.6 0.00 0.00 0.00 56 1012.8
20260509221035 89 264 5.2 10.4 0.00 0.00 0.00 56 1012.8
20260509220533 90 233 5.2 10.4 0.00 0.00 0.00 56 1012.8
20260509220049 90 247 6.1 10.4 0.00 0.00 0.00 55 1012.8
20260509215536 90 208 7.0 10.4 0.00 0.00 0.00 55 1012.5
20260509215033 91 218 4.3 9.6 0.00 0.00 0.00 55 1012.5
20260509214547 91 221 6.1 9.6 0.00 0.00 0.00 55 1012.5
20260509214035 90 250 4.3 9.6 0.00 0.00 0.00 55 1012.6
20260509213536 91 218 7.0 11.3 0.00 0.00 0.00 54 1012.6
20260509213057 92 219 7.0 11.3 0.00 0.00 0.00 54 1012.4
20260509212532 93 256 7.0 12.2 0.00 0.00 0.00 54 1012.4
20260509212035 94 236 7.8 12.2 0.00 0.00 0.00 54 1012.3
20260509211544 93 242 6.1 11.3 0.00 0.00 0.00 54 1012.2
20260509211034 92 214 7.0 12.2 0.00 0.00 0.00 54 1012.4
20260509210533 92 212 6.1 12.2 0.00 0.00 0.00 53 1012.1
20260509210048 93 283 7.0 12.2 0.00 0.00 0.00 51 1012.2
20260509205533 94 246 5.2 10.4 0.00 0.00 0.00 51 1012.1
20260509205039 94 260 7.0 12.2 0.00 0.00 0.00 52 1012.2
20260509204542 93 216 7.0 12.2 0.00 0.00 0.00 52 1012.2
20260509204032 94 238 7.8 11.3 0.00 0.00 0.00 51 1012.3
20260509203533 94 205 7.8 13.0 0.00 0.00 0.00 52 1012.2
20260509203052 94 207 7.8 13.0 0.00 0.00 0.00 52 1012.0
20260509202532 94 200 5.2 13.0 0.00 0.00 0.00 51 1012.0
20260509202033 93 238 7.8 13.0 0.00 0.00 0.00 52 1012.1
20260509201546 93 238 7.8 12.2 0.00 0.00 0.00 52 1012.2
20260509201033 93 257 7.8 13.0 0.00 0.00 0.00 52 1012.1
20260509200533 93 248 8.7 13.0 0.00 0.00 0.00 51 1012.3
20260509200045 94 248 7.8 13.0 0.00 0.00 0.00 52 1012.4
20260509195534 94 236 7.8 13.9 0.00 0.00 0.00 52 1012.3
20260509195034 94 235 7.8 13.9 0.00 0.00 0.00 53 1012.4
20260509194552 93 246 7.8 13.9 0.00 0.00 0.00 53 1012.3